User: anonymous   Login
Location: G�kdere
(37.0328°N, 30.9000°E)
Time: 04:56:15
(UTC+00:00)
Language:

Cosmos 1515 - Orbit

View from above orbital plane
View from above orbital plane
View from above satellite
View from above satellite

Ground track
Ground track

The orbit data is extracted from the following two-line orbital elements,

1 14551U 83122A   21125.33406118  .00000761  00000-0  35124-4 0  9992
2 14551  82.5016 209.7787 0008201  53.9150  11.5098 15.18693673784680
Epoch (UTC): 05 May 2021 08:01:02
Eccentricity: 0.0008201
inclination: 82.5016°
perigee height: 504 km
apogee height: 515 km
right ascension of ascending node: 209.7787°
argument of perigee: 53.9150°
revolutions per day: 15.18693673
mean anomaly at epoch: 11.5098°
orbit number at epoch: 78468

The dashed part of the orbit path shows where the satellite is in the earth's shadow,  

DLR